Location: *
(55.5817°S, 142.4781°W)
Time: 07:37:38
(UTC+00:00)

Elektron 3 - Pass Details

Date: 29 April 2025
Orbit: 405 x 6078 km, 60.8° (Epoch: 23 May)

Event Time Altitude Azimuth Distance (km) Brightness Sun altitude
Exits shadow 14:38:35 57° 242° (WSW) 559 4.0 -18.9°
Maximum altitude 14:38:58 63° 203° (SSW) 541 4.1 -18.9°
Drops below altitude 10° 14:43:12 10° 121° (ESE) 2,161 8.2 -18.3°
Sets 14:46:23 0° 117° (ESE) 3,606 9.6 -17.8°
